Content
SEND FEEDBACK

Daily
Averages
Monthly
Summary
Canada

QUEBEC CITY, QUEBEC


Home > North America > Canada > Quebec
Elevation: 239 feet     Latitude: 46 48N     Longitude: 071 23W

WEATHER
 
SELECT A DAY
Number of Records: 192,457;   Date Range: 6/30/96 - 8/20/14
 
SHARE

PRINT THIS DATA

[ ← Previous Day ]
WEATHER ALMANAC - SEPTEMBER 15, 2013
[ Next Day → ]
[ °C ]   °F
Weather ElementAverageHighLow
Temperature54.8 °F64.4 °F (4:00 pm)48.2 °F (5:00 am)
Dewpoint47.4 °F54 °F (11:00 pm) (7:00 pm)
Humidity83.7 %94 % (1:00 am)64 % (4:00 pm)
Barometer28.16 in30.04 in (9:00 am) (7:00 pm)
Wind Speed10.5 mph15 mph (6:00 am)
Wind Gust20.7 mph (4:00 pm)
Weather ElementAverage
Visibility21.4 mi
Wind DirectionWSW (243.9 °)

Weather ElementTotal
Precipitation---
Heating Degree Days8.7 (Base 65)
Growing Degree Days6.3 (Base 50)
Averaged from 33 records on September 15, 2013
WEATHER CONDITIONS BREAKOUT
WIND DIRECTION BREAKOUT
WEATHER BY HOUR - SEPTEMBER 15, 2013
[ °C ]   °F
Local TimeTemperatureDewpointHumidityBarometerVisibilityWind DirectionWind SpeedGust SpeedPrecipitationEventsConditions
1:00 AM53.6 °F51.8 °F94 %29.99 in10.0 miWSW (240°)10.4 mphOvercast
2:00 AM53.0 °F52.0 °F93 %29.98 inSW (230°)5.8 mph
2:00 AM53.6 °F51.8 °F94 %30.00 in10.0 miWSW (240°)8.1 mphMostly Cloudy
3:00 AM50.0 °F48.2 °F94 %30.00 in15.0 miWSW (240°)8.1 mphScattered Clouds
4:00 AM50.0 °F48.2 °F94 %30.00 in15.0 miWSW (250°)9.2 mphMostly Cloudy
5:00 AM49.0 °F47.0 °F92 %29.99 inWSW (240°)6.9 mph
5:00 AM48.2 °F46.4 °F93 %30.00 in15.0 miWSW (240°)12.7 mphScattered Clouds
6:00 AM48.2 °F46.4 °F93 %30.01 in15.0 miWSW (240°)15.0 mphMostly Cloudy
6:40 AM48.2 °F0.0 °F25.0 miWSW (240°)10.4 mphMostly Cloudy
7:00 AM48.2 °F46.4 °F93 %30.02 in25.0 miWSW (240°)12.7 mphMostly Cloudy
8:00 AM49.0 °F47.0 °F91 %30.02 inWSW (250°)9.2 mph
8:00 AM48.2 °F46.4 °F93 %30.03 in25.0 miWSW (250°)10.4 mphOvercast
8:39 AM50.0 °F0.0 °F25.0 miWSW (240°)13.8 mphMostly Cloudy
9:00 AM50.0 °F46.4 °F87 %30.04 in25.0 miWSW (240°)13.8 mphMostly Cloudy
10:00 AM50.0 °F46.4 °F87 %30.04 in25.0 miWSW (240°)12.7 mphMostly Cloudy
11:00 AM53.6 °F48.2 °F82 %30.02 in25.0 miWSW (250°)10.4 mph17.3 mphMostly Cloudy
11:00 AM53.0 °F48.0 °F79 %30.00 inWSW (250°)9.2 mph
12:00 PM55.4 °F50.0 °F82 %30.02 in25.0 miWSW (240°)11.5 mphOvercast
1:00 PM59.0 °F51.8 °F77 %30.00 in25.0 miWest (260°)6.9 mphOvercast
2:00 PM61.0 °F53.0 °F69 %29.96 inWest (260°)11.5 mph
2:00 PM60.8 °F53.6 °F77 %29.99 in25.0 miWest (260°)13.8 mphMostly Cloudy
3:00 PM62.6 °F51.8 °F68 %29.97 in30.0 miWSW (250°)15.0 mphMostly Cloudy
4:00 PM64.4 °F51.8 °F64 %29.94 in30.0 miWSW (250°)12.7 mph20.7 mphMostly Cloudy
5:00 PM62.6 °F53.6 °F72 %29.95 in30.0 miWSW (250°)11.5 mphOvercast
5:00 PM62.0 °F53.0 °F66 %29.93 inWest (260°)8.1 mph
6:00 PM60.8 °F53.6 °F77 %29.95 in30.0 miWSW (240°)12.7 mphOvercast
7:00 PM60.8 °F51.8 °F72 %29.94 in30.0 miSW (230°)11.5 mphOvercast
8:00 PM59.0 °F53.0 °F73 %29.93 inWSW (240°)6.9 mph
8:00 PM59.0 °F51.8 °F77 %29.95 in15.0 miSW (230°)13.8 mphOvercast
9:00 PM59.0 °F53.6 °F82 %29.94 in15.0 miWSW (250°)11.5 mphOvercast
10:00 PM55.4 °F53.6 °F94 %29.94 in15.0 miSW (230°)8.1 mphOvercast
11:00 PM56.0 °F54.0 °F91 %29.91 inWSW (240°)4.6 mph
11:00 PM55.4 °F53.6 °F94 %29.94 in10.0 miWSW (240°)9.2 mphRainLight Rain Showers
Hourly data recorded from CYQB, located miles away from Quebec City, Quebec







STORIES FROM OUR PARTNERS